{"data":{"norad_id":66943,"epoch":"2026-05-25T04:00:03.998880Z","epoch_age_seconds":67546,"freshness":"FRESH","line1":"1 66943U 25286U   26145.16671295  .00002402  00000+0  82231-4 0  9993","line2":"2 66943  53.1594   2.7137 0001432  82.6058 251.1431 15.34391152  5855","mean_motion":15.34391152,"eccentricity":0.0001432,"inclination_deg":53.1594,"raan_deg":2.7137,"arg_perigee_deg":82.6058,"mean_anomaly_deg":251.1431,"bstar":8.2231e-5,"rev_number":585,"period_min":93.84829925036,"perigee_km":461.7499263658,"apogee_km":463.70915054241,"semimajor_km":6840.8665384541,"source":"CELESTRAK","updated_at":"2026-05-25T13:38:21.389412Z"}}